IZA306 ULLI-USII

Flight info

Callsign IZA306
Flight time 1h 54m
Altitude 35000
Route KERIS1A/28R KERIS L255 DOKOD M61 AGNOG P977 RULEN RULEN1E
Aircraft B738/M-SDE2E3FGHIRWXY/LB1

Departure

Time 2026-04-22 10:02
Airport Pulkovo Airport (ULLI)

Arrival

Time 2026-04-22 11:56
Airport Izhevsk Airport (USII)
Time Latitude Longitude Altitude Speed Heading
2026-04-22 09:40 59.79765 30.26289 84 ft 0 kts 106°
2026-04-22 09:53 59.79762 30.26307 83 ft 0 kts 106°
2026-04-22 09:54 59.79758 30.26334 80 ft 5 kts 105°
2026-04-22 09:54 59.79773 30.26394 83 ft 5 kts 26°
2026-04-22 09:54 59.79807 30.26414 79 ft 5 kts 17°
2026-04-22 09:54 59.79841 30.26435 80 ft 5 kts 16°
2026-04-22 09:55 59.79876 30.26455 80 ft 5 kts 17°
2026-04-22 09:55 59.79912 30.26478 80 ft 7 kts 17°
2026-04-22 09:55 59.79967 30.26510 83 ft 10 kts 16°
2026-04-22 09:55 59.80042 30.26554 84 ft 13 kts 17°
2026-04-22 09:56 59.80135 30.26609 83 ft 15 kts 17°
2026-04-22 09:56 59.80240 30.26671 81 ft 16 kts 17°
2026-04-22 09:56 59.80339 30.26729 81 ft 12 kts 16°
2026-04-22 09:56 59.80402 30.26812 84 ft 12 kts 93°
2026-04-22 09:57 59.80380 30.26967 81 ft 12 kts 107°
2026-04-22 09:57 59.80357 30.27118 81 ft 11 kts 107°
2026-04-22 09:57 59.80335 30.27262 81 ft 11 kts 106°
2026-04-22 09:57 59.80314 30.27405 81 ft 11 kts 107°
2026-04-22 09:58 59.80293 30.27543 79 ft 10 kts 106°
2026-04-22 09:58 59.80274 30.27678 80 ft 10 kts 106°
2026-04-22 09:58 59.80250 30.27832 81 ft 14 kts 107°
2026-04-22 09:58 59.80214 30.28075 74 ft 22 kts 107°
2026-04-22 09:59 59.80164 30.28410 77 ft 28 kts 106°
2026-04-22 09:59 59.80104 30.28813 77 ft 31 kts 107°
2026-04-22 09:59 59.80044 30.29216 68 ft 30 kts 106°
2026-04-22 09:59 59.79986 30.29597 73 ft 28 kts 107°
2026-04-22 10:00 59.79938 30.29930 71 ft 23 kts 102°
2026-04-22 10:00 59.79993 30.30144 74 ft 0 kts 47°
2026-04-22 10:00 59.79994 30.30145 71 ft 2 kts 47°
2026-04-22 10:00 59.80033 30.30229 64 ft 11 kts 47°
2026-04-22 10:01 59.80102 30.30291 66 ft 11 kts 348°
2026-04-22 10:01 59.80127 30.30194 75 ft 0 kts 286°
2026-04-22 10:01 59.80170 30.29910 75 ft 56 kts 287°
2026-04-22 10:02 59.80347 30.28730 68 ft 122 kts 286°
2026-04-22 10:02 59.80632 30.26758 148 ft 171 kts 285°
2026-04-22 10:02 59.80979 30.24459 983 ft 169 kts 286°
2026-04-22 10:02 59.81275 30.22407 2380 ft 146 kts 288°
2026-04-22 10:03 59.81583 30.20430 3016 ft 157 kts 288°
2026-04-22 10:03 59.81913 30.18220 3437 ft 172 kts 287°
2026-04-22 10:03 59.82260 30.15955 4063 ft 173 kts 287°
2026-04-22 10:03 59.82632 30.13544 4305 ft 193 kts 287°
2026-04-22 10:04 59.83031 30.10902 4680 ft 205 kts 286°
2026-04-22 10:04 59.83442 30.08106 5158 ft 216 kts 287°
2026-04-22 10:04 59.83856 30.05252 5963 ft 214 kts 288°
2026-04-22 10:04 59.84332 30.02420 6565 ft 220 kts 300°
2026-04-22 10:05 59.85422 30.00293 7176 ft 225 kts 331°
2026-04-22 10:05 59.85888 29.99907 7469 ft 224 kts 338°
2026-04-22 10:05 59.86802 29.99467 7954 ft 226 kts 348°
2026-04-22 10:05 59.88409 29.99693 8412 ft 246 kts
2026-04-22 10:06 59.90024 30.00669 9259 ft 241 kts 10°
2026-04-22 10:06 59.91628 30.01791 9802 ft 253 kts 22°
2026-04-22 10:06 59.92941 30.04228 10472 ft 267 kts 51°
2026-04-22 10:06 59.93555 30.07830 11049 ft 287 kts 83°
2026-04-22 10:07 59.93227 30.11826 11686 ft 297 kts 101°
2026-04-22 10:07 59.92610 30.15783 12302 ft 301 kts 103°
2026-04-22 10:07 59.91933 30.19782 12860 ft 310 kts 108°
2026-04-22 10:07 59.91000 30.23783 13201 ft 328 kts 112°
2026-04-22 10:08 59.89983 30.27956 13602 ft 340 kts 112°
2026-04-22 10:08 59.88991 30.32318 13974 ft 351 kts 104°
2026-04-22 10:08 59.88568 30.37111 14220 ft 358 kts 88°
2026-04-22 10:08 59.88449 30.42119 14371 ft 377 kts 86°
2026-04-22 10:09 59.88342 30.47463 14518 ft 395 kts 87°
2026-04-22 10:09 59.88211 30.53022 14876 ft 406 kts 88°
2026-04-22 10:09 59.88053 30.58655 15511 ft 408 kts 88°
2026-04-22 10:09 59.87880 30.64311 16169 ft 411 kts 88°
2026-04-22 10:10 59.87702 30.70007 16766 ft 414 kts 88°
2026-04-22 10:10 59.87520 30.75764 17345 ft 418 kts 88°
2026-04-22 10:10 59.87336 30.81564 17944 ft 421 kts 88°
2026-04-22 10:10 59.87148 30.87405 18468 ft 424 kts 88°
2026-04-22 10:11 59.86957 30.93290 18956 ft 427 kts 88°
2026-04-22 10:11 59.86761 30.99220 19446 ft 430 kts 88°
2026-04-22 10:11 59.86564 31.05112 19963 ft 433 kts 88°
2026-04-22 10:11 59.86361 31.11104 20457 ft 435 kts 88°
2026-04-22 10:12 59.86154 31.17131 20916 ft 439 kts 88°
2026-04-22 10:12 59.85942 31.23226 21371 ft 442 kts 88°
2026-04-22 10:12 59.85727 31.29345 21841 ft 445 kts 88°
2026-04-22 10:12 59.85507 31.35497 22311 ft 447 kts 88°
2026-04-22 10:13 59.85283 31.41696 22749 ft 451 kts 88°
2026-04-22 10:13 59.85054 31.47937 23169 ft 454 kts 88°
2026-04-22 10:13 59.84820 31.54223 23558 ft 456 kts 88°
2026-04-22 10:13 59.84583 31.60507 23963 ft 457 kts 88°
2026-04-22 10:14 59.84341 31.66834 24343 ft 459 kts 88°
2026-04-22 10:14 59.84099 31.73112 24692 ft 461 kts 88°
2026-04-22 10:14 59.83849 31.79492 25064 ft 462 kts 88°
2026-04-22 10:14 59.83596 31.85879 25428 ft 464 kts 88°
2026-04-22 10:15 59.83339 31.92300 25761 ft 466 kts 88°
2026-04-22 10:15 59.83077 31.98753 26091 ft 468 kts 89°
2026-04-22 10:15 59.82811 32.05225 26438 ft 470 kts 89°
2026-04-22 10:15 59.82542 32.11715 26773 ft 471 kts 89°
2026-04-22 10:16 59.82268 32.18221 27071 ft 473 kts 89°
2026-04-22 10:16 59.81992 32.24754 27368 ft 475 kts 89°
2026-04-22 10:16 59.81710 32.31307 27690 ft 477 kts 89°
2026-04-22 10:16 59.81467 32.37780 27993 ft 476 kts 87°
2026-04-22 10:17 59.81332 32.44362 28311 ft 476 kts 85°
2026-04-22 10:17 59.81255 32.50926 28716 ft 475 kts 85°
2026-04-22 10:17 59.81193 32.57472 29204 ft 472 kts 85°
2026-04-22 10:17 59.81127 32.63959 29680 ft 469 kts 85°
2026-04-22 10:18 59.81049 32.70445 29998 ft 469 kts 85°
2026-04-22 10:18 59.80959 32.76960 30251 ft 470 kts 85°
2026-04-22 10:18 59.80859 32.83454 30538 ft 470 kts 86°
2026-04-22 10:18 59.80751 32.89948 30884 ft 469 kts 86°
2026-04-22 10:19 59.80637 32.96419 31189 ft 468 kts 86°
2026-04-22 10:19 59.80519 33.02893 31451 ft 469 kts 86°
2026-04-22 10:19 59.80398 33.09360 31741 ft 469 kts 86°
2026-04-22 10:19 59.80276 33.15741 32053 ft 468 kts 86°
2026-04-22 10:20 59.80150 33.22189 32338 ft 467 kts 86°
2026-04-22 10:20 59.80021 33.28641 32584 ft 468 kts 86°
2026-04-22 10:20 59.79889 33.35094 32858 ft 467 kts 86°
2026-04-22 10:20 59.79754 33.41543 33161 ft 466 kts 86°
2026-04-22 10:21 59.79616 33.47972 33424 ft 466 kts 87°
2026-04-22 10:21 59.79475 33.54406 33647 ft 467 kts 87°
2026-04-22 10:21 59.79331 33.60856 33859 ft 467 kts 87°
2026-04-22 10:21 59.79183 33.67298 34079 ft 466 kts 87°
2026-04-22 10:22 59.79032 33.73723 34271 ft 466 kts 88°
2026-04-22 10:22 59.78879 33.80162 34445 ft 467 kts 88°
2026-04-22 10:22 59.78722 33.86591 34598 ft 466 kts 88°
2026-04-22 10:22 59.78563 33.93030 34595 ft 469 kts 88°
2026-04-22 10:23 59.78231 34.05961 34608 ft 467 kts 88°
2026-04-22 10:23 59.77888 34.18821 34606 ft 466 kts 88°
2026-04-22 10:24 59.77537 34.31555 34602 ft 465 kts 89°
2026-04-22 10:24 59.77172 34.44376 34595 ft 464 kts 89°
2026-04-22 10:25 59.76794 34.57179 34599 ft 464 kts 89°
2026-04-22 10:26 59.76008 34.82569 34593 ft 464 kts 89°
2026-04-22 10:26 59.75594 34.95340 34593 ft 464 kts 89°
2026-04-22 10:27 59.75169 35.08054 34590 ft 465 kts 90°
2026-04-22 10:27 59.74729 35.20877 34585 ft 465 kts 90°
2026-04-22 10:28 59.74278 35.33676 34589 ft 466 kts 90°
2026-04-22 10:28 59.73809 35.46511 34583 ft 466 kts 90°
2026-04-22 10:29 59.73321 35.59345 34584 ft 467 kts 91°
2026-04-22 10:29 59.72821 35.72185 34582 ft 467 kts 91°
2026-04-22 10:30 59.72311 35.85023 34573 ft 467 kts 91°
2026-04-22 10:30 59.71792 35.97774 34575 ft 467 kts 91°
2026-04-22 10:31 59.71256 36.10610 34569 ft 467 kts 91°
2026-04-22 10:31 59.70709 36.23427 34570 ft 467 kts 91°
2026-04-22 10:32 59.70245 36.34081 34567 ft 467 kts 92°
2026-04-22 10:32 59.69675 36.46880 34564 ft 466 kts 92°
2026-04-22 10:33 59.69096 36.59672 34561 ft 466 kts 92°
2026-04-22 10:33 59.68496 36.72445 34564 ft 466 kts 92°
2026-04-22 10:34 59.67875 36.85133 34559 ft 466 kts 92°
2026-04-22 10:34 59.67238 36.97903 34553 ft 466 kts 93°
2026-04-22 10:35 59.66592 37.10665 34552 ft 465 kts 93°
2026-04-22 10:35 59.65936 37.23405 34556 ft 465 kts 93°
2026-04-22 10:36 59.65268 37.36114 34551 ft 464 kts 93°
2026-04-22 10:36 59.64593 37.48737 34548 ft 464 kts 93°
2026-04-22 10:37 59.63551 37.67766 34545 ft 464 kts 94°
2026-04-22 10:38 59.62844 37.80440 34547 ft 464 kts 94°
2026-04-22 10:38 59.62124 37.93102 34543 ft 464 kts 94°
2026-04-22 10:39 59.61400 38.05758 34545 ft 464 kts 94°
2026-04-22 10:39 59.60666 38.18433 34540 ft 464 kts 94°
2026-04-22 10:40 59.59926 38.31017 34545 ft 464 kts 94°
2026-04-22 10:40 59.59170 38.43653 34541 ft 464 kts 94°
2026-04-22 10:41 59.58400 38.56310 34548 ft 464 kts 94°
2026-04-22 10:41 59.57618 38.68956 34543 ft 464 kts 95°
2026-04-22 10:42 59.56823 38.81608 34534 ft 464 kts 95°
2026-04-22 10:42 59.56016 38.94243 34546 ft 464 kts 95°
2026-04-22 10:43 59.55203 39.06786 34539 ft 464 kts 95°
2026-04-22 10:43 59.54375 39.19380 34549 ft 463 kts 95°
2026-04-22 10:44 59.53533 39.31986 34540 ft 463 kts 95°
2026-04-22 10:44 59.52680 39.44565 34547 ft 463 kts 95°
2026-04-22 10:45 59.51816 39.57133 34548 ft 463 kts 95°
2026-04-22 10:45 59.50941 39.69684 34545 ft 462 kts 95°
2026-04-22 10:46 59.50056 39.82219 34546 ft 462 kts 95°
2026-04-22 10:46 59.49410 39.94780 34552 ft 460 kts 91°
2026-04-22 10:47 59.48987 40.07359 34538 ft 460 kts 91°
2026-04-22 10:47 59.48538 40.19920 34549 ft 460 kts 92°
2026-04-22 10:48 59.48042 40.32477 34550 ft 460 kts 92°
2026-04-22 10:48 59.47528 40.44947 34546 ft 460 kts 92°
2026-04-22 10:49 59.47003 40.57495 34549 ft 460 kts 92°
2026-04-22 10:49 59.46465 40.70034 34542 ft 460 kts 92°
2026-04-22 10:50 59.45907 40.82570 34542 ft 460 kts 92°
2026-04-22 10:50 59.45338 40.95088 34548 ft 460 kts 92°
2026-04-22 10:51 59.44758 41.07617 34551 ft 460 kts 93°
2026-04-22 10:51 59.44167 41.20148 34549 ft 460 kts 93°
2026-04-22 10:52 59.43565 41.32665 34552 ft 460 kts 93°
2026-04-22 10:52 59.42950 41.45176 34555 ft 460 kts 93°
2026-04-22 10:53 59.42327 41.57608 34557 ft 460 kts 93°
2026-04-22 10:53 59.41689 41.70110 34554 ft 460 kts 93°
2026-04-22 10:54 59.41037 41.82626 34561 ft 460 kts 94°
2026-04-22 10:54 59.40373 41.95130 34555 ft 461 kts 93°
2026-04-22 10:55 59.39700 42.07630 34562 ft 460 kts 94°
2026-04-22 10:55 59.39014 42.20122 34563 ft 460 kts 94°
2026-04-22 10:56 59.38318 42.32592 34568 ft 460 kts 94°
2026-04-22 10:56 59.37591 42.44971 34566 ft 460 kts 94°
2026-04-22 10:57 59.36830 42.57433 34567 ft 459 kts 94°
2026-04-22 10:57 59.36060 42.69881 34568 ft 460 kts 94°
2026-04-22 10:58 59.35282 42.82326 34579 ft 459 kts 94°
2026-04-22 10:58 59.34495 42.94741 34569 ft 459 kts 95°
2026-04-22 10:59 59.33695 43.07160 34570 ft 459 kts 94°
2026-04-22 10:59 59.32885 43.19570 34576 ft 459 kts 95°
2026-04-22 11:00 59.32065 43.31903 34573 ft 459 kts 95°
2026-04-22 11:00 59.31232 43.44307 34566 ft 459 kts 95°
2026-04-22 11:01 59.30384 43.56709 34581 ft 460 kts 95°
2026-04-22 11:01 59.29522 43.69154 34586 ft 461 kts 95°
2026-04-22 11:02 59.28647 43.81604 34578 ft 462 kts 96°
2026-04-22 11:02 59.27766 43.93998 34581 ft 463 kts 96°
2026-04-22 11:03 59.26867 44.06483 34575 ft 464 kts 96°
2026-04-22 11:03 59.25961 44.18967 34577 ft 464 kts 96°
2026-04-22 11:04 59.25125 44.31461 34576 ft 463 kts 95°
2026-04-22 11:04 59.24304 44.43943 34579 ft 463 kts 95°
2026-04-22 11:05 59.23463 44.56418 34573 ft 463 kts 96°
2026-04-22 11:05 59.22610 44.68797 34572 ft 463 kts 96°
2026-04-22 11:06 59.21737 44.81240 34581 ft 462 kts 96°
2026-04-22 11:06 59.20855 44.93674 34575 ft 462 kts 96°
2026-04-22 11:07 59.19962 45.06076 34574 ft 461 kts 96°
2026-04-22 11:07 59.19059 45.18476 34576 ft 461 kts 97°
2026-04-22 11:08 59.18103 45.30751 34572 ft 461 kts 99°
2026-04-22 11:08 59.16790 45.42992 34583 ft 461 kts 101°
2026-04-22 11:09 59.15372 45.55216 34571 ft 462 kts 101°
2026-04-22 11:09 59.13972 45.67436 34582 ft 462 kts 101°
2026-04-22 11:10 59.12597 45.79583 34575 ft 462 kts 101°
2026-04-22 11:10 59.11207 45.91820 34579 ft 462 kts 101°
2026-04-22 11:11 59.09807 46.04043 34576 ft 463 kts 101°
2026-04-22 11:11 59.08390 46.16284 34578 ft 463 kts 102°
2026-04-22 11:12 59.06961 46.28519 34576 ft 464 kts 102°
2026-04-22 11:12 59.05520 46.40737 34584 ft 464 kts 102°
2026-04-22 11:13 59.04069 46.52948 34582 ft 464 kts 102°
2026-04-22 11:13 59.02613 46.65086 34585 ft 464 kts 102°
2026-04-22 11:14 59.01135 46.77303 34585 ft 464 kts 102°
2026-04-22 11:14 58.99647 46.89496 34584 ft 464 kts 102°
2026-04-22 11:15 58.98156 47.01615 34590 ft 464 kts 103°
2026-04-22 11:15 58.96643 47.13808 34591 ft 464 kts 103°
2026-04-22 11:16 58.95120 47.25988 34594 ft 464 kts 103°
2026-04-22 11:16 58.93590 47.38123 34598 ft 464 kts 104°
2026-04-22 11:17 58.91081 47.49606 34600 ft 465 kts 121°
2026-04-22 11:17 58.87097 47.59342 34609 ft 465 kts 130°
2026-04-22 11:18 58.82825 47.68770 34608 ft 466 kts 130°
2026-04-22 11:18 58.78581 47.78226 34613 ft 466 kts 130°
2026-04-22 11:19 58.74350 47.87732 34621 ft 466 kts 130°
2026-04-22 11:19 58.70120 47.97221 34630 ft 467 kts 130°
2026-04-22 11:20 58.65884 48.06678 34628 ft 467 kts 130°
2026-04-22 11:20 58.61663 48.16066 34633 ft 467 kts 130°
2026-04-22 11:21 58.57413 48.25527 34635 ft 468 kts 129°
2026-04-22 11:21 58.53431 48.35403 34644 ft 468 kts 127°
2026-04-22 11:22 58.49527 48.45362 34648 ft 468 kts 127°
2026-04-22 11:22 58.46232 48.53585 34642 ft 468 kts 128°
2026-04-22 11:23 58.42262 48.63457 34650 ft 469 kts 127°
2026-04-22 11:23 58.38295 48.73341 34653 ft 469 kts 127°
2026-04-22 11:24 58.34345 48.83148 34663 ft 469 kts 128°
2026-04-22 11:24 58.30361 48.92992 34663 ft 469 kts 128°
2026-04-22 11:25 58.26370 49.02811 34728 ft 470 kts 128°
2026-04-22 11:25 58.22349 49.12660 34665 ft 473 kts 128°
2026-04-22 11:26 58.18306 49.22523 34658 ft 474 kts 128°
2026-04-22 11:26 58.14274 49.32319 34669 ft 475 kts 128°
2026-04-22 11:27 58.10192 49.42195 34664 ft 476 kts 129°
2026-04-22 11:27 58.06104 49.52045 34669 ft 476 kts 129°
2026-04-22 11:28 58.01994 49.61908 34675 ft 477 kts 129°
2026-04-22 11:28 57.97889 49.71720 34659 ft 477 kts 129°
2026-04-22 11:29 57.93771 49.81522 34665 ft 476 kts 129°
2026-04-22 11:29 57.89656 49.91281 34666 ft 476 kts 129°
2026-04-22 11:30 57.85658 50.01196 34667 ft 476 kts 122°
2026-04-22 11:30 57.82966 50.12435 34683 ft 476 kts 110°
2026-04-22 11:31 57.80742 50.24152 34668 ft 475 kts 110°
2026-04-22 11:31 57.78503 50.35805 34676 ft 475 kts 111°
2026-04-22 11:32 57.76215 50.47415 34683 ft 475 kts 111°
2026-04-22 11:32 57.73915 50.58927 34689 ft 475 kts 111°
2026-04-22 11:33 57.71591 50.70482 34681 ft 475 kts 111°
2026-04-22 11:33 57.69255 50.82041 34681 ft 475 kts 111°
2026-04-22 11:33 57.68079 50.87835 34425 ft 480 kts 111°
2026-04-22 11:34 57.66884 50.93705 33817 ft 483 kts 111°
2026-04-22 11:34 57.65688 50.99565 33095 ft 483 kts 111°
2026-04-22 11:34 57.64489 51.05422 32356 ft 483 kts 111°
2026-04-22 11:34 57.63290 51.11265 31633 ft 482 kts 112°
2026-04-22 11:35 57.62083 51.17127 30906 ft 483 kts 112°
2026-04-22 11:35 57.59433 51.29941 29320 ft 481 kts 112°
2026-04-22 11:35 57.58234 51.35712 28741 ft 475 kts 112°
2026-04-22 11:36 57.57047 51.41415 28205 ft 468 kts 112°
2026-04-22 11:36 57.55873 51.47034 27667 ft 462 kts 112°
2026-04-22 11:36 57.54711 51.52579 27150 ft 457 kts 112°
2026-04-22 11:36 57.53557 51.58074 26627 ft 452 kts 113°
2026-04-22 11:37 57.52429 51.63429 26098 ft 448 kts 113°
2026-04-22 11:37 57.51295 51.68794 25600 ft 443 kts 113°
2026-04-22 11:37 57.50170 51.74110 25082 ft 440 kts 113°
2026-04-22 11:37 57.49049 51.79390 24579 ft 436 kts 113°
2026-04-22 11:38 57.47938 51.84605 24073 ft 433 kts 114°
2026-04-22 11:38 57.46833 51.89787 23591 ft 430 kts 114°
2026-04-22 11:38 57.44636 52.00048 22492 ft 424 kts 114°
2026-04-22 11:39 57.43548 52.05115 22009 ft 420 kts 114°
2026-04-22 11:39 57.42469 52.10119 21497 ft 416 kts 114°
2026-04-22 11:39 57.41280 52.14978 20982 ft 409 kts 126°
2026-04-22 11:39 57.39454 52.18889 20547 ft 397 kts 143°
2026-04-22 11:40 57.37160 52.21601 20048 ft 387 kts 158°
2026-04-22 11:40 57.34777 52.23699 19583 ft 383 kts 160°
2026-04-22 11:40 57.32362 52.25742 19104 ft 381 kts 160°
2026-04-22 11:40 57.29956 52.27762 18636 ft 378 kts 160°
2026-04-22 11:41 57.27569 52.29777 18176 ft 376 kts 160°
2026-04-22 11:41 57.25200 52.31791 17664 ft 374 kts 160°
2026-04-22 11:41 57.22850 52.33802 17159 ft 371 kts 160°
2026-04-22 11:41 57.20522 52.35802 16703 ft 368 kts 160°
2026-04-22 11:42 57.18982 52.37126 16384 ft 366 kts 159°
2026-04-22 11:42 57.16682 52.39104 15932 ft 363 kts 159°
2026-04-22 11:42 57.14401 52.41065 15475 ft 361 kts 159°
2026-04-22 11:42 57.12133 52.43012 15028 ft 358 kts 159°
2026-04-22 11:43 57.09883 52.44942 14573 ft 356 kts 159°
2026-04-22 11:43 57.07641 52.46862 14137 ft 354 kts 159°
2026-04-22 11:43 57.05407 52.48773 13703 ft 353 kts 159°
2026-04-22 11:43 57.03182 52.50673 13225 ft 351 kts 159°
2026-04-22 11:44 57.00972 52.52559 12752 ft 349 kts 159°
2026-04-22 11:44 56.98781 52.54426 12319 ft 346 kts 159°
2026-04-22 11:44 56.96633 52.56255 11883 ft 344 kts 159°
2026-04-22 11:44 56.94472 52.58091 11463 ft 341 kts 159°
2026-04-22 11:45 56.92320 52.59917 11030 ft 339 kts 159°
2026-04-22 11:45 56.90183 52.61728 10606 ft 338 kts 158°
2026-04-22 11:45 56.88070 52.63519 10378 ft 330 kts 159°
2026-04-22 11:45 56.86019 52.65257 10224 ft 320 kts 159°
2026-04-22 11:46 56.84026 52.66942 10088 ft 311 kts 159°
2026-04-22 11:46 56.82096 52.68572 9957 ft 302 kts 159°
2026-04-22 11:46 56.80213 52.70159 9832 ft 293 kts 159°
2026-04-22 11:46 56.78411 52.71675 9710 ft 285 kts 159°
2026-04-22 11:47 56.76610 52.73189 9410 ft 283 kts 159°
2026-04-22 11:47 56.74830 52.74682 9136 ft 280 kts 159°
2026-04-22 11:47 56.73065 52.76162 8835 ft 279 kts 159°
2026-04-22 11:47 56.71319 52.77628 8528 ft 273 kts 157°
2026-04-22 11:48 56.69803 52.79753 8127 ft 282 kts 129°
2026-04-22 11:48 56.68880 52.82880 7889 ft 281 kts 113°
2026-04-22 11:48 56.68171 52.86196 7618 ft 279 kts 112°
2026-04-22 11:48 56.67485 52.89494 7375 ft 277 kts 112°
2026-04-22 11:49 56.66812 52.92708 7193 ft 267 kts 112°
2026-04-22 11:49 56.66142 52.95860 6939 ft 266 kts 112°
2026-04-22 11:49 56.65481 52.98942 6700 ft 264 kts 112°
2026-04-22 11:49 56.64811 53.02036 6476 ft 262 kts 112°
2026-04-22 11:50 56.64162 53.05018 6325 ft 256 kts 112°
2026-04-22 11:50 56.63512 53.07997 6185 ft 251 kts 112°
2026-04-22 11:50 56.62846 53.10910 5942 ft 249 kts 116°
2026-04-22 11:50 56.62124 53.13758 5681 ft 248 kts 117°
2026-04-22 11:51 56.61396 53.16595 5451 ft 247 kts 117°
2026-04-22 11:51 56.60674 53.19418 5231 ft 246 kts 116°
2026-04-22 11:51 56.60316 53.22431 5022 ft 248 kts 84°
2026-04-22 11:51 56.60974 53.25236 4995 ft 243 kts 44°
2026-04-22 11:52 56.62267 53.27185 5006 ft 243 kts 33°
2026-04-22 11:52 56.63686 53.28922 4861 ft 249 kts 30°
2026-04-22 11:52 56.65178 53.30537 4528 ft 254 kts 25°
2026-04-22 11:52 56.66791 53.31995 4163 ft 257 kts 22°
2026-04-22 11:53 56.68359 53.33324 3812 ft 246 kts 22°
2026-04-22 11:53 56.69870 53.34606 3461 ft 233 kts 22°
2026-04-22 11:53 56.71301 53.35828 3135 ft 220 kts 22°
2026-04-22 11:53 56.72651 53.36983 2844 ft 207 kts 22°
2026-04-22 11:54 56.73924 53.38070 2540 ft 196 kts 22°
2026-04-22 11:54 56.75123 53.39093 2259 ft 184 kts 22°
2026-04-22 11:54 56.76243 53.40050 2032 ft 169 kts 22°
2026-04-22 11:54 56.77269 53.40926 1820 ft 160 kts 21°
2026-04-22 11:55 56.78268 53.41777 1567 ft 159 kts 22°
2026-04-22 11:55 56.79263 53.42630 1323 ft 153 kts 22°
2026-04-22 11:55 56.80203 53.43436 1087 ft 149 kts 22°
2026-04-22 11:55 56.81142 53.44245 892 ft 152 kts 22°
2026-04-22 11:56 56.82111 53.45063 667 ft 154 kts 21°
2026-04-22 11:56 56.83061 53.45872 534 ft 141 kts 23°
2026-04-22 11:56 56.83857 53.46545 528 ft 107 kts 25°
2026-04-22 11:56 56.84355 53.46971 519 ft 48 kts 25°
2026-04-22 11:57 56.84497 53.47035 518 ft 18 kts
2026-04-22 11:57 56.84522 53.47074 518 ft 4 kts 67°
2026-04-22 11:57 56.84514 53.47113 517 ft 4 kts 158°
2026-04-22 11:57 56.84492 53.47089 520 ft 4 kts 214°
2026-04-22 11:58 56.84469 53.47065 519 ft 4 kts 204°
2026-04-22 11:58 56.84445 53.47046 519 ft 4 kts 204°
2026-04-22 11:58 56.84419 53.47024 520 ft 5 kts 205°
2026-04-22 11:58 56.84374 53.46987 519 ft 10 kts 205°
2026-04-22 11:59 56.84293 53.46917 519 ft 16 kts 205°
2026-04-22 11:59 56.84187 53.46827 522 ft 18 kts 205°
2026-04-22 11:59 56.84065 53.46723 525 ft 20 kts 205°
2026-04-22 11:59 56.83938 53.46615 527 ft 21 kts 205°
2026-04-22 12:00 56.83795 53.46493 528 ft 24 kts 205°
2026-04-22 12:00 56.83631 53.46354 529 ft 27 kts 205°
2026-04-22 12:00 56.83456 53.46205 531 ft 27 kts 205°
2026-04-22 12:00 56.83288 53.46062 533 ft 26 kts 205°
2026-04-22 12:01 56.83132 53.45929 533 ft 24 kts 205°
2026-04-22 12:01 56.82988 53.45807 533 ft 16 kts 205°
2026-04-22 12:01 56.82910 53.45692 535 ft 14 kts 271°
2026-04-22 12:01 56.82948 53.45531 536 ft 14 kts 295°
2026-04-22 12:02 56.82987 53.45378 536 ft 13 kts 295°
2026-04-22 12:02 56.83048 53.45302 536 ft 7 kts 302°
2026-04-22 12:02 56.83071 53.45219 536 ft 7 kts 295°
2026-04-22 12:02 56.83058 53.45143 536 ft 7 kts 209°
2026-04-22 12:03 56.83039 53.45126 536 ft 0 kts 206°